Weather History for Lampedusa, Italy

Change the Weather History Date:

Sunday, November 11, 2012

  Actual Average Record
Temperature  
Mean Temperature 74 °F -  
Max Temperature 75 °F 66 °F 77 °F (2005)
Min Temperature 73 °F 60 °F 60 °F (1998)
Cooling Degree Days 9    
Growing Degree Days 24 (Base 50)    
Moisture  
Dew Point 67 °F    
Average Humidity 78    
Maximum Humidity 83    
Minimum Humidity 73    
Precipitation  
Precipitation 0.00 in 0.08 in - ()
Sea Level Pressure  
Sea Level Pressure 29.91 in    
Wind  
Wind Speed 23 mph ()    
Max Wind Speed 29 mph    
Max Gust Speed 39 mph    
Visibility 5.1 miles    
Events      
Averages and records for this station are not official NWS values.
T = Trace of Precipitation, MM = Missing Value Source: Averaged Metar Reports

Daily Weather History Graph

Daily Weather History Graph

Search for Another Location

Airport:

Trip Planner

Search our weather history database for the weather conditions in past years. The results will help you decide how hot, cold, wet, or windy it might be!

Date:

Astronomy

Nov. 11, 2012 Rise Set
Actual Time 6:41 AM CET 5:05 PM CET
Civil Twilight 6:14 AM CET 5:32 PM CET
Nautical Twilight 5:43 AM CET 6:02 PM CET
Astronomical Twilight 5:13 AM CET 6:33 PM CET
Moon 3:40 AM CET (11/11) 3:14 PM CET (11/11)
Length of Visible Light 11h 18m
Length of Day
10h 24m
Waning Crescent, 9% of the Moon is Illuminated
Nov 11
Waning Crescent
Nov 13
New
Nov 20
First Quarter
Nov 28
Full
Dec 6
Last Quarter

Hourly Weather History & Observations

Time (CET) Temp. Dew Point Humidity Pressure Visibility Wind Dir Wind Speed Gust Speed Precip Events Conditions
6:02 AM 73.4 °F 68.0 °F 83% 29.92 in 5.6 mi SSE 26.5 mph - N/A   Partly Cloudy
6:10 AM 73.4 °F 68.0 °F 83% 29.92 in 5.6 mi SSE 25.3 mph - N/A   Partly Cloudy
6:50 AM 73.4 °F 68.0 °F 83% 29.92 in 5.6 mi SSE 26.5 mph - N/A   Partly Cloudy
7:50 AM 73.4 °F 66.2 °F 78% 29.95 in 5.6 mi SSE 25.3 mph - N/A   Partly Cloudy
8:50 AM 73.4 °F 66.2 °F 78% 29.95 in 5.6 mi SSE 27.6 mph - N/A   Partly Cloudy
9:50 AM 75.2 °F 66.2 °F 73% 29.95 in 5.6 mi SE 26.5 mph - N/A   Partly Cloudy
11:50 AM 75.2 °F 66.2 °F 73% 29.92 in 5.0 mi SSE 28.8 mph - N/A   Partly Cloudy
12:50 PM 75.2 °F 66.2 °F 73% 29.89 in 5.0 mi SSE 27.6 mph - N/A   Partly Cloudy
1:50 PM 75.2 °F 66.2 °F 73% 29.89 in 5.0 mi SE 25.3 mph - N/A   Partly Cloudy
2:50 PM 75.2 °F 66.2 °F 73% 29.89 in 5.0 mi SE 24.2 mph - N/A   Partly Cloudy
3:50 PM 73.4 °F 66.2 °F 78% 29.86 in 5.0 mi SE 24.2 mph - N/A   Partly Cloudy
4:50 PM 73.4 °F 66.2 °F 78% 29.86 in 5.0 mi SE 26.5 mph - N/A   Partly Cloudy
5:50 PM 73.4 °F 66.2 °F 78% 29.89 in 5.0 mi SE 26.5 mph - N/A   Unknown
6:50 PM 73.4 °F 66.2 °F 78% 29.89 in 5.6 mi SE 27.6 mph - N/A   Unknown
7:50 PM 73.4 °F 66.2 °F 78% 29.92 in 5.6 mi SE 26.5 mph - N/A   Unknown
8:50 PM 73.4 °F 66.2 °F 78% 29.92 in 5.0 mi SE 27.6 mph 39.1 mph N/A   Unknown
9:50 PM 73.4 °F 68.0 °F 83% 29.92 in 5.0 mi SE 26.5 mph - N/A   Unknown
10:50 PM 73.4 °F 66.2 °F 78% 29.95 in 3.7 mi SE 26.5 mph - N/A   Unknown
11:50 PM 73.4 °F 66.2 °F 78% 29.95 in 4.3 mi SE 26.5 mph - N/A   Unknown